Temp
-9 -9 -9 -9 -9 -9 -9 -9 -9 -9 -9 -9 -10 -10 -10 -10 -10 -10 -9 -9 -9 -9 -9 -9 -9 -9 -9 -9 -9 -9 -9 -9 -8 -8 -8 -8 -9 -9 -9 -9 -9 -9 -9 -9 -9 -9 -8 -8 -8 -8 -8 -8 -8 -8 -8 -8 -8 -7 -7 -7 -6 -6 -6 -6 -6 -6 -6 -6 -6
-9 -9 -9 -9 -9 -9 -9 -9 -9 -9 -10 -10 -10 -10 -10 -10 -10 -10 -9 -9 -9 -9 -9 -9 -9 -9 -9 -9 -9 -9 -9 -8 -8 -8 -8 -9 -9 -9 -9 -9 -9 -9 -9 -9 -9 -9 -9 -8 -8 -8 -8 -8 -8 -8 -8 -8 -8 -7 -7 -7 -6 -6 -6 -6 -6 -6 -6 -6 -6
-9 -9 -10 -10 -10 -10 -10 -10 -10 -10 -10 -10 -10 -10 -10 -10 -10 -10 -10 -9 -9 -9 -9 -9 -9 -9 -9 -9 -9 -9 -9 -8 -8 -8 -8 -9 -9 -9 -9 -9 -9 -9 -9 -9 -9 -9 -9 -9 -9 -8 -8 -8 -8 -8 -8 -8 -8 -7 -7 -7 -7 -7 -6 -6 -6 -6 -6 -6 -6
-10 -10 -10 -10 -10 -10 -10 -10 -10 -10 -10 -10 -10 -10 -10 -10 -10 -10 -10 -10 -9 -9 -9 -9 -9 -9 -9 -9 -9 -9 -8 -8 -8 -8 -8 -9 -9 -9 -9 -9 -9 -9 -9 -9 -9 -9 -9 -9 -9 -8 -8 -8 -8 -8 -8 -8 -8 -7 -7 -7 -7 -7 -7 -7 -6 -6 -6 -6 -6
-10 -10 -10 -10 -10 -10 -10 -10 -10 -10 -10 -10 -10 -10 -10 -10 -10 -10 -10 -10 -9 -9 -9 -9 -9 -9 -9 -9 -8 -8 -8 -8 -8 -8 -9 -9 -9 -9 -9 -9 -9 -9 -9 -9 -9 -9 -9 -9 -9 -8 -8 -8 -8 -8 -8 -8 -8 -8 -8 -8 -7 -7 -7 -7 -7 -7 -6 -6 -6
-10 -10 -10 -10 -10 -10 -10 -10 -10 -10 -10 -10 -10 -10 -10 -10 -10 -10 -10 -10 -10 -9 -9 -9 -9 -9 -9 -8 -8 -8 -8 -8 -9 -9 -9 -9 -9 -9 -9 -9 -9 -9 -9 -9 -9 -9 -9 -9 -9 -8 -8 -8 -8 -8 -8 -8 -8 -8 -8 -8 -8 -8 -7 -7 -7 -7 -7 -6 -6
-10 -10 -10 -10 -10 -10 -10 -10 -10 -10 -10 -10 -10 -10 -10 -10 -10 -10 -10 -10 -10 -9 -9 -9 -9 -9 -9 -9 -8 -8 -8 -9 -9 -9 -9 -9 -9 -9 -9 -9 -9 -9 -9 -9 -9 -9 -9 -8 -8 -8 -8 -8 -8 -8 -8 -8 -8 -8 -8 -8 -8 -8 -8 -7 -7 -7 -7 -6 -6
-10 -10 -10 -10 -10 -10 -10 -10 -10 -10 -10 -10 -10 -10 -10 -10 -10 -10 -10 -10 -9 -9 -9 -9 -9 -9 -9 -9 -8 -8 -9 -9 -9 -9 -9 -9 -9 -9 -9 -9 -9 -9 -9 -8 -9 -9 -9 -9 -9 -9 -9 -8 -8 -8 -8 -8 -9 -9 -8 -8 -8 -8 -8 -7 -7 -7 -7 -7 -7
-10 -10 -10 -10 -10 -10 -10 -10 -10 -10 -10 -10 -10 -10 -10 -10 -10 -10 -10 -10 -9 -9 -9 -9 -9 -9 -9 -9 -9 -9 -9 -9 -9 -9 -9 -9 -9 -9 -9 -9 -9 -9 -8 -8 -9 -9 -9 -9 -9 -9 -9 -9 -9 -9 -9 -9 -9 -9 -9 -8 -8 -8 -8 -8 -7 -7 -7 -7 -6
-10 -10 -10 -10 -10 -10 -10 -10 -10 -10 -10 -10 -10 -10 -10 -10 -10 -10 -10 -10 -9 -9 -9 -9 -9 -9 -9 -9 -9 -9 -9 -9 -9 -9 -9 -9 -9 -9 -9 -9 -9 -9 -9 -9 -9 -9 -9 -9 -9 -9 -9 -9 -9 -9 -9 -9 -9 -9 -9 -8 -8 -8 -8 -8 -7 -7 -7 -7 -6
-10 -10 -10 -10 -10 -10 -10 -10 -10 -10 -10 -10 -10 -10 -10 -10 -10 -10 -10 -9 -9 -9 -9 -9 -9 -9 -9 -9 -9 -9 -9 -9 -9 -9 -9 -9 -9 -9 -9 -9 -9 -9 -9 -9 -9 -9 -9 -9 -9 -9 -9 -9 -9 -9 -9 -9 -9 -9 -9 -8 -8 -8 -8 -8 -7 -7 -7 -6 -6
-10 -10 -10 -10 -10 -10 -10 -10 -10 -10 -10 -10 -10 -10 -10 -10 -10 -10 -9 -9 -9 -9 -9 -9 -9 -9 -9 -9 -9 -9 -9 -9 -9 -9 -9 -9 -9 -9 -9 -9 -9 -9 -9 -9 -9 -9 -9 -9 -9 -9 -9 -9 -9 -9 -9 -9 -9 -9 -9 -8 -8 -8 -8 -7 -7 -7 -6 -6 -6
-10 -10 -10 -10 -10 -10 -10 -10 -10 -10 -10 -10 -10 -10 -10 -10 -10 -10 -9 -9 -9 -9 -9 -9 -9 -9 -9 -9 -9 -9 -9 -9 -9 -9 -9 -9 -9 -9 -9 -9 -9 -9 -9 -9 -9 -9 -9 -9 -9 -9 -9 -9 -9 -9 -9 -9 -9 -9 -9 -8 -8 -8 -8 -7 -7 -6 -6 -6 -5
-10 -10 -10 -10 -10 -10 -10 -10 -10 -10 -10 -10 -10 -10 -10 -10 -10 -9 -9 -9 -9 -9 -9 -9 -9 -9 -9 -9 -9 -9 -9 -9 -9 -9 -9 -9 -9 -9 -9 -9 -9 -9 -9 -9 -9 -9 -9 -9 -9 -9 -9 -9 -9 -9 -9 -9 -9 -9 -8 -8 -8 -8 -7 -7 -6 -6 -5 -5 -5
-10 -10 -10 -10 -10 -10 -10 -10 -10 -10 -10 -10 -10 -10 -10 -10 -9 -9 -9 -9 -9 -9 -9 -9 -9 -9 -9 -9 -9 -9 -9 -9 -9 -9 -9 -9 -9 -9 -9 -9 -9 -9 -9 -9 -9 -9 -9 -9 -9 -9 -9 -9 -9 -9 -9 -9 -9 -9 -8 -8 -8 -7 -7 -6 -6 -6 -5 -5 -4
-10 -10 -10 -10 -10 -10 -10 -10 -10 -10 -10 -10 -10 -10 -10 -10 -10 -10 -9 -9 -9 -9 -9 -9 -9 -9 -9 -9 -9 -9 -9 -9 -9 -9 -9 -9 -9 -9 -9 -9 -9 -9 -9 -9 -9 -9 -9 -9 -9 -9 -9 -9 -9 -9 -9 -9 -8 -8 -8 -8 -7 -7 -6 -6 -6 -5 -5 -4 -4
-10 -10 -10 -10 -10 -10 -10 -10 -10 -10 -10 -10 -10 -10 -10 -10 -10 -10 -9 -9 -9 -9 -9 -9 -9 -9 -9 -9 -9 -9 -9 -9 -9 -9 -9 -9 -9 -9 -9 -9 -9 -9 -9 -9 -9 -9 -9 -9 -9 -9 -9 -9 -9 -9 -8 -8 -8 -7 -7 -7 -6 -6 -6 -5 -5 -5 -4 -4 -4
-10 -10 -10 -10 -10 -10 -10 -10 -10 -10 -10 -10 -10 -10 -10 -10 -10 -9 -9 -9 -9 -9 -9 -9 -9 -9 -9 -9 -9 -9 -9 -9 -9 -9 -9 -9 -9 -9 -9 -9 -9 -9 -9 -9 -9 -9 -9 -9 -8 -8 -8 -8 -8 -8 -8 -7 -7 -6 -6 -6 -5 -5 -5 -5 -5 -4 -4 -4 -4
-10 -10 -10 -10 -10 -10 -10 -10 -10 -10 -10 -10 -10 -10 -9 -9 -9 -9 -9 -9 -9 -9 -9 -9 -9 -9 -9 -9 -9 -9 -9 -9 -9 -9 -9 -9 -9 -9 -9 -9 -9 -9 -9 -9 -9 -9 -8 -8 -8 -8 -8 -8 -8 -8 -7 -6 -6 -5 -5 -5 -5 -5 -5 -4 -4 -4 -4 -4 -4
-10 -10 -10 -10 -10 -10 -10 -10 -9 -9 -9 -9 -9 -9 -9 -9 -9 -9 -9 -9 -9 -9 -9 -9 -9 -9 -9 -9 -9 -9 -9 -9 -9 -9 -9 -9 -9 -9 -9 -9 -9 -9 -9 -9 -9 -8 -8 -8 -8 -8 -8 -8 -7 -6 -6 -5 -5 -5 -5 -5 -4 -4 -4 -4 -4 -4 -4 -4 -4
-10 -10 -10 -10 -10 -10 -10 -9 -9 -9 -9 -9 -9 -9 -9 -9 -9 -9 -9 -9 -9 -9 -9 -9 -9 -9 -9 -9 -9 -9 -9 -9 -9 -9 -9 -9 -9 -9 -9 -9 -9 -9 -9 -8 -8 -8 -8 -8 -8 -8 -7 -7 -6 -5 -5 -5 -4 -4 -4 -4 -4 -4 -4 -4 -4 -4 -4 -4 -4
-10 -10 -10 -10 -10 -10 -9 -9 -9 -9 -9 -9 -9 -9 -9 -9 -9 -9 -9 -9 -9 -9 -9 -9 -9 -9 -9 -9 -9 -9 -9 -9 -9 -9 -9 -9 -9 -9 -9 -9 -9 -9 -9 -8 -9 -8 -8 -7 -7 -6 -6 -6 -5 -5 -4 -5 -5 -5 -4 -4 -4 -4 -4 -4 -4 -4 -4 -4 -4
-10 -10 -10 -10 -9 -9 -9 -9 -9 -9 -9 -9 -9 -9 -9 -9 -9 -9 -9 -9 -9 -9 -9 -9 -9 -9 -9 -9 -9 -9 -9 -9 -9 -9 -9 -9 -9 -9 -9 -9 -9 -8 -8 -9 -8 -7 -6 -6 -6 -5 -5 -5 -5 -5 -5 -5 -5 -5 -4 -4 -5 -5 -5 -5 -4 -4 -4 -4 -4
-10 -10 -10 -10 -9 -9 -9 -9 -9 -9 -9 -9 -9 -9 -9 -9 -9 -9 -9 -9 -9 -9 -9 -9 -9 -9 -9 -9 -9 -9 -9 -9 -9 -9 -9 -9 -9 -9 -9 -9 -8 -8 -9 -9 -7 -5 -5 -5 -6 -6 -6 -6 -6 -6 -6 -6 -5 -5 -5 -5 -5 -5 -5 -5 -5 -5 -5 -5 -4
-10 -10 -10 -9 -9 -9 -9 -9 -9 -9 -9 -9 -9 -9 -9 -9 -9 -9 -9 -9 -9 -8 -8 -9 -9 -9 -9 -9 -9 -9 -9 -9 -9 -9 -9 -9 -9 -9 -9 -8 -8 -8 -8 -8 -5 -4 -5 -5 -6 -6 -6 -6 -6 -6 -6 -6 -6 -6 -6 -6 -6 -6 -6 -5 -5 -5 -5 -5 -5
-10 -9 -9 -9 -9 -9 -9 -9 -9 -9 -9 -9 -9 -9 -9 -9 -9 -9 -9 -9 -8 -8 -8 -9 -9 -9 -8 -8 -8 -8 -8 -9 -9 -9 -9 -9 -9 -8 -8 -8 -8 -8 -8 -6 -4 -4 -4 -5 -5 -6 -6 -6 -6 -6 -7 -7 -6 -6 -6 -6 -6 -6 -6 -6 -5 -5 -5 -5 -5
-9 -9 -9 -9 -9 -9 -9 -9 -9 -9 -9 -9 -9 -9 -9 -9 -9 -9 -8 -8 -8 -8 -8 -9 -8 -8 -8 -8 -8 -8 -8 -8 -8 -8 -8 -8 -8 -8 -8 -8 -8 -8 -7 -5 -4 -4 -4 -5 -5 -6 -6 -6 -7 -7 -7 -7 -6 -6 -6 -6 -6 -6 -6 -6 -6 -6 -5 -5 -5
-9 -9 -9 -9 -9 -9 -9 -9 -9 -9 -9 -9 -9 -9 -8 -8 -8 -8 -8 -8 -8 -8 -8 -8 -8 -8 -8 -8 -8 -8 -8 -8 -8 -8 -8 -8 -8 -8 -8 -8 -8 -8 -6 -5 -4 -4 -5 -5 -5 -6 -6 -6 -7 -7 -7 -7 -7 -7 -7 -7 -7 -7 -7 -7 -7 -6 -6 -5 -5
-9 -9 -9 -9 -9 -9 -9 -9 -9 -9 -9 -9 -8 -8 -8 -8 -8 -8 -8 -8 -8 -8 -8 -8 -8 -8 -8 -8 -8 -8 -8 -8 -8 -8 -8 -8 -8 -8 -7 -7 -8 -7 -6 -4 -4 -4 -5 -5 -5 -6 -6 -7 -7 -7 -7 -7 -7 -7 -7 -7 -7 -7 -7 -7 -7 -7 -7 -6 -5
-9 -9 -9 -9 -9 -9 -9 -9 -9 -9 -9 -8 -8 -8 -8 -8 -8 -8 -8 -8 -8 -8 -8 -8 -8 -8 -8 -8 -8 -8 -8 -8 -8 -8 -8 -8 -8 -7 -7 -7 -7 -7 -6 -4 -4 -5 -5 -5 -6 -6 -7 -7 -7 -7 -7 -7 -7 -7 -7 -7 -8 -8 -8 -7 -7 -7 -7 -7 -6
-9 -9 -9 -9 -9 -9 -9 -9 -8 -8 -8 -8 -8 -8 -8 -8 -8 -8 -8 -8 -8 -8 -8 -8 -8 -8 -8 -8 -8 -8 -8 -8 -8 -8 -8 -8 -7 -7 -7 -6 -7 -7 -6 -5 -5 -5 -5 -6 -6 -6 -7 -7 -7 -7 -7 -7 -7 -7 -7 -7 -8 -8 -8 -7 -7 -7 -7 -7 -6
-9 -9 -9 -8 -8 -8 -8 -8 -8 -8 -8 -8 -8 -8 -8 -8 -8 -8 -8 -8 -8 -8 -8 -8 -8 -8 -8 -8 -8 -8 -8 -8 -8 -8 -8 -8 -7 -7 -7 -6 -6 -6 -5 -5 -5 -5 -5 -6 -6 -6 -7 -7 -7 -8 -7 -7 -7 -7 -7 -8 -8 -8 -7 -7 -7 -7 -7 -7 -7
-8 -8 -8 -8 -8 -8 -8 -8 -8 -8 -8 -8 -8 -8 -8 -8 -8 -8 -8 -8 -8 -8 -8 -8 -8 -8 -8 -8 -8 -8 -8 -8 -8 -8 -8 -7 -7 -7 -7 -6 -6 -6 -5 -5 -5 -5 -6 -6 -6 -7 -7 -7 -8 -8 -8 -8 -8 -8 -8 -8 -8 -8 -7 -7 -7 -7 -7 -7 -7
-8 -8 -8 -8 -8 -8 -8 -8 -8 -8 -8 -8 -8 -8 -8 -8 -8 -8 -8 -8 -8 -8 -8 -8 -8 -8 -8 -8 -8 -8 -8 -8 -8 -8 -8 -7 -7 -7 -7 -7 -6 -6 -5 -5 -5 -5 -5 -6 -6 -7 -8 -8 -8 -8 -8 -8 -8 -8 -8 -8 -8 -8 -8 -7 -7 -7 -7 -7 -7
-8 -8 -8 -8 -8 -8 -8 -8 -8 -8 -8 -8 -8 -8 -8 -8 -8 -8 -8 -8 -8 -8 -8 -8 -8 -8 -8 -8 -8 -8 -8 -8 -8 -8 -8 -7 -7 -7 -7 -7 -6 -6 -5 -5 -5 -5 -5 -6 -6 -7 -8 -8 -8 -8 -8 -8 -8 -8 -8 -8 -8 -8 -8 -8 -8 -7 -7 -7 -7
-8 -8 -8 -8 -8 -8 -8 -8 -8 -8 -8 -8 -8 -8 -8 -8 -8 -8 -8 -8 -8 -8 -8 -8 -8 -8 -8 -8 -8 -8 -8 -8 -8 -8 -8 -8 -7 -7 -7 -7 -6 -6 -5 -5 -5 -5 -5 -6 -6 -7 -8 -8 -9 -9 -9 -9 -9 -9 -9 -8 -8 -8 -8 -8 -8 -8 -8 -7 -7
-8 -8 -8 -8 -8 -8 -8 -8 -8 -8 -8 -8 -9 -9 -9 -8 -8 -8 -8 -8 -8 -8 -8 -8 -8 -8 -8 -8 -8 -8 -8 -8 -8 -8 -8 -8 -7 -7 -7 -7 -6 -6 -5 -5 -5 -5 -5 -5 -6 -7 -8 -8 -8 -9 -9 -9 -9 -9 -9 -9 -9 -8 -8 -8 -8 -8 -8 -8 -7
-8 -8 -8 -8 -8 -8 -8 -8 -8 -8 -8 -8 -9 -9 -9 -9 -9 -9 -8 -8 -8 -8 -8 -8 -8 -8 -8 -8 -8 -8 -8 -8 -8 -8 -8 -8 -8 -7 -7 -7 -7 -6 -6 -5 -5 -5 -5 -5 -6 -7 -7 -8 -8 -9 -9 -9 -9 -9 -9 -9 -9 -9 -9 -8 -9 -8 -8 -8 -8
-8 -8 -8 -8 -8 -8 -8 -8 -8 -8 -8 -8 -8 -8 -9 -9 -9 -9 -8 -8 -8 -8 -8 -8 -8 -8 -8 -8 -8 -8 -8 -8 -7 -7 -8 -8 -8 -7 -7 -7 -7 -6 -6 -5 -5 -5 -5 -5 -6 -6 -7 -7 -8 -8 -9 -9 -9 -9 -9 -9 -9 -9 -9 -9 -9 -9 -9 -8 -8
-8 -8 -8 -8 -8 -8 -8 -8 -8 -8 -8 -8 -8 -9 -9 -9 -9 -8 -8 -8 -8 -8 -8 -8 -8 -8 -8 -8 -8 -8 -8 -8 -7 -7 -8 -8 -8 -8 -7 -7 -7 -6 -6 -5 -5 -5 -5 -5 -5 -6 -7 -7 -8 -8 -8 -9 -9 -9 -9 -9 -9 -9 -9 -9 -9 -9 -9 -9 -8
-8 -8 -8 -8 -8 -8 -8 -8 -8 -8 -8 -8 -8 -9 -9 -9 -8 -8 -8 -8 -8 -8 -8 -8 -8 -8 -8 -8 -8 -8 -8 -8 -7 -7 -7 -8 -8 -8 -7 -7 -7 -6 -6 -6 -5 -5 -5 -5 -5 -6 -6 -7 -7 -8 -8 -8 -9 -9 -9 -9 -9 -9 -9 -9 -9 -9 -9 -9 -9
Height
882 881 880 878 877 875 874 873 871 870 869 867 865 863 861 860 859 857 855 854 853 851 850 848 847 845 843 842 840 839 837 835 834 833 832 830 829 828 826 825 823 822 820 819 817 816 814 813 811 810 808 807 805 804 802 801 800 798 796 795 793 792 791 790 788 786 785 784 783
882 880 879 878 877 875 874 872 871 869 868 866 865 863 861 860 858 857 855 854 853 851 850 848 846 844 842 840 839 837 836 834 833 832 830 829 828 826 825 823 822 820 819 818 816 815 814 812 810 809 807 805 804 803 801 800 799 797 795 794 792 791 790 788 787 785 784 782 781
881 880 878 877 876 875 873 871 870 868 867 865 864 863 861 860 858 857 855 854 852 851 849 847 845 843 841 840 838 836 835 833 832 830 829 828 827 825 824 822 821 819 818 817 815 814 813 811 810 808 806 804 803 801 800 799 797 796 794 793 792 790 789 787 785 784 783 781 780
881 880 878 876 875 874 873 871 870 868 866 865 863 862 861 860 858 857 855 853 852 850 848 846 845 842 840 839 837 835 834 832 831 830 828 827 825 824 823 821 820 818 816 815 814 813 811 810 808 806 805 803 802 800 799 797 796 795 794 792 791 789 788 786 785 783 781 780 778
880 879 878 876 875 874 872 871 869 868 866 865 863 862 860 859 858 856 855 853 851 850 848 845 844 842 840 838 835 834 832 831 830 829 827 826 824 823 821 820 818 816 815 814 812 811 810 808 807 805 803 802 800 799 798 796 795 794 792 791 790 788 787 785 783 782 780 779 777
880 879 878 876 875 874 872 870 869 867 866 864 863 862 860 859 857 856 854 852 850 849 847 845 843 841 839 837 835 833 831 830 829 828 827 825 823 821 820 818 817 815 814 812 811 810 808 807 805 804 802 800 799 798 796 795 794 793 791 790 788 787 785 784 782 780 779 778 776
880 879 877 876 875 873 872 870 869 867 865 864 863 861 860 859 857 855 854 852 850 848 846 844 842 840 838 836 834 832 831 830 829 827 826 824 822 820 819 817 815 814 812 810 809 808 807 805 804 802 801 799 798 796 795 794 793 792 790 788 786 785 784 782 780 779 778 776 775
880 879 878 876 875 873 872 870 868 867 865 864 863 861 860 858 856 855 853 851 849 847 845 844 842 840 838 835 834 832 831 830 828 826 825 823 821 819 817 815 814 812 811 809 808 807 805 804 803 801 800 798 796 795 794 793 792 790 788 786 785 783 782 780 779 778 776 775 773
880 879 877 876 875 873 871 870 868 867 865 864 863 861 860 858 856 854 852 850 849 847 845 843 841 839 837 835 834 832 831 829 827 825 823 821 820 818 816 814 813 811 810 808 807 805 804 803 801 800 798 797 795 793 792 791 790 788 786 785 783 781 780 779 777 776 775 773 771
880 878 877 875 874 872 871 870 868 867 865 864 862 860 859 857 855 853 851 850 848 846 845 843 840 839 837 835 834 832 830 828 826 824 822 820 819 817 815 813 811 810 808 807 805 804 802 801 799 798 796 795 794 792 790 789 788 786 785 783 782 780 778 777 775 774 773 771 770
879 878 876 875 874 872 871 869 868 866 865 863 861 860 858 856 855 853 851 850 847 845 844 842 840 838 836 835 833 831 829 827 825 823 821 819 817 815 814 812 810 809 807 805 804 802 801 799 797 795 794 793 792 790 788 787 785 784 783 781 780 779 777 775 773 772 771 770 769
879 878 876 875 874 872 870 869 867 866 864 863 861 859 857 856 854 852 850 849 847 845 843 841 840 838 836 835 832 830 829 827 825 823 820 818 816 814 812 811 809 807 805 804 802 800 799 797 795 793 792 790 790 788 786 785 784 782 781 780 778 777 775 773 772 771 770 769 767
879 878 876 875 873 872 870 869 867 865 864 862 860 859 857 855 854 852 850 848 846 845 843 841 840 838 836 834 832 830 828 826 824 822 820 817 815 813 811 809 807 805 804 802 800 799 797 795 793 791 789 788 787 786 785 784 782 781 779 778 776 775 774 772 770 769 768 767 766
879 878 876 875 873 871 870 868 866 865 863 862 860 859 857 855 853 851 850 848 846 844 842 840 839 837 835 833 831 830 827 825 823 821 819 816 815 812 810 808 805 804 801 800 798 796 795 793 790 789 787 785 784 783 782 781 780 779 778 776 775 774 772 771 770 768 768 767 766
879 878 876 875 873 871 870 868 866 865 863 862 860 858 856 855 853 851 850 848 846 844 842 840 838 836 835 833 831 829 826 824 822 820 818 815 813 811 809 806 804 802 800 797 795 794 792 790 788 786 785 783 781 780 780 779 778 777 776 775 773 772 771 770 769 768 767 766 765
879 878 876 875 873 871 870 868 866 865 863 862 860 858 856 855 853 851 849 847 845 843 841 840 838 836 834 832 830 828 825 823 821 819 817 814 812 810 807 805 802 800 797 795 793 791 789 787 786 784 782 781 779 778 777 776 775 774 773 772 772 771 770 769 768 767 767 766 765
879 877 876 875 873 871 870 868 866 865 863 861 860 858 856 855 853 851 849 847 845 843 841 839 837 835 833 831 829 827 825 822 820 818 816 813 811 808 805 803 800 798 795 793 790 788 786 784 783 781 780 779 777 776 775 773 772 772 771 770 770 769 768 768 768 767 767 766 765
879 878 876 874 873 871 870 868 866 865 863 861 860 858 856 854 852 850 849 846 845 842 840 838 836 835 833 830 828 826 824 821 819 817 815 812 810 807 804 801 799 796 794 791 788 786 784 781 780 779 777 776 775 774 773 771 770 770 769 769 769 768 768 768 767 767 767 766 765
879 878 876 875 873 871 870 868 866 865 863 861 860 858 855 854 852 850 848 845 844 842 840 838 836 834 832 830 827 825 823 821 818 816 814 811 808 806 803 800 797 795 792 789 787 784 782 780 778 776 775 774 772 772 771 770 769 769 769 768 768 768 768 768 767 767 767 766 765
879 878 876 875 873 871 870 868 866 865 863 861 859 857 855 853 851 849 847 845 843 841 840 837 835 833 831 829 826 824 822 820 818 815 813 810 807 805 801 799 796 793 790 788 785 782 779 777 775 773 772 771 770 770 769 769 769 768 768 768 768 768 768 768 767 767 766 765 765
880 878 876 875 873 871 869 868 866 865 863 861 859 857 855 852 850 848 846 845 843 841 839 837 835 832 830 828 826 824 821 820 817 815 812 809 806 803 800 798 795 792 789 785 782 779 775 773 772 771 770 770 769 769 769 769 769 769 768 768 768 768 768 768 767 767 766 765 764
880 878 876 875 873 871 869 868 866 864 862 860 858 856 854 852 850 848 846 844 842 840 838 836 834 832 830 827 825 823 821 819 816 814 811 808 805 803 800 797 794 790 786 783 779 775 773 771 770 770 769 769 769 769 770 769 769 768 768 768 768 768 768 767 767 766 766 765 764
880 878 876 875 873 871 869 867 865 864 862 860 858 856 854 852 850 847 845 843 841 839 837 835 833 831 829 827 825 823 821 818 815 813 810 808 805 802 799 796 792 789 785 781 777 774 772 771 771 770 770 770 770 770 770 769 769 768 768 768 768 768 768 767 767 766 765 765 764
880 878 876 875 872 870 869 867 865 863 861 860 858 856 854 851 849 847 845 842 840 838 836 835 833 831 829 827 825 823 820 818 815 812 810 807 804 801 798 795 791 788 784 780 778 776 774 773 772 772 771 771 770 770 770 769 768 768 768 768 769 768 768 767 767 766 766 765 764
880 878 876 874 872 870 868 866 865 863 861 859 857 855 854 851 849 846 844 842 840 837 835 834 832 831 829 827 825 823 820 818 815 812 809 806 804 801 797 794 790 787 784 781 780 777 775 775 774 774 773 772 772 771 770 770 769 769 769 769 769 769 768 767 766 766 766 765 764
879 877 876 874 872 870 868 866 864 863 861 859 857 855 853 851 849 846 844 841 839 837 835 833 832 831 830 828 825 823 820 818 815 813 810 807 804 800 797 794 791 788 785 784 781 778 776 777 777 776 775 774 773 773 772 771 770 770 770 770 770 770 769 767 766 766 765 765 764
879 877 875 874 871 870 868 866 864 863 861 859 857 855 853 851 849 846 844 841 839 836 835 833 832 831 830 828 825 823 820 818 815 813 810 808 805 801 798 795 792 789 786 785 782 780 779 779 779 779 778 776 775 775 774 773 772 772 772 772 771 771 770 769 768 766 765 764 764
879 877 875 873 871 870 868 866 864 863 861 859 857 855 854 851 849 846 844 841 839 836 835 833 833 832 830 828 826 823 821 818 816 813 811 808 806 803 800 796 793 790 788 786 784 783 782 782 782 781 780 779 778 777 776 775 775 775 775 774 774 773 772 771 770 768 767 765 764
879 877 875 873 871 870 868 866 864 863 861 859 858 856 854 851 849 847 844 842 839 837 835 834 833 832 830 828 826 824 821 819 816 814 812 809 807 804 801 798 795 792 790 788 786 785 785 785 784 784 783 782 780 779 778 778 777 777 777 776 776 775 774 773 771 770 769 767 766
879 877 875 873 871 870 868 866 865 863 861 860 858 856 854 852 850 847 845 842 840 838 836 835 833 832 831 829 827 825 822 820 817 815 813 810 808 805 802 799 796 794 792 790 789 788 788 787 787 786 785 784 782 781 780 780 779 779 779 778 777 776 775 774 773 771 770 769 767
879 877 875 873 871 870 868 866 865 863 862 860 858 856 854 852 850 847 845 843 840 838 836 835 833 832 831 829 827 825 823 821 819 816 814 812 810 807 804 801 798 796 795 792 790 790 790 790 789 788 787 785 784 783 782 781 781 780 780 779 778 777 776 775 773 772 770 769 768
879 877 875 873 872 870 868 867 865 863 862 860 858 856 854 852 850 848 846 844 841 839 836 835 833 831 830 829 828 826 824 822 820 817 815 813 811 809 806 803 799 798 796 794 792 792 792 791 791 790 789 787 786 785 783 783 782 781 780 780 779 778 776 775 774 772 771 769 768
879 877 875 874 872 870 869 867 865 864 862 860 858 856 855 852 850 848 846 844 842 840 837 835 834 832 831 830 828 827 825 823 821 819 817 815 812 810 807 805 801 799 798 795 793 793 793 793 793 792 791 789 787 786 785 784 783 782 781 780 779 778 777 776 775 773 771 770 769
879 877 875 874 872 871 869 867 865 864 862 860 859 857 855 853 851 849 846 845 843 841 839 837 835 833 831 830 829 828 826 824 822 820 818 816 814 811 809 806 803 802 800 797 795 794 795 795 794 793 792 791 789 788 786 785 785 784 783 782 780 779 778 777 776 774 773 771 770
879 877 875 874 873 871 870 868 866 864 862 860 859 857 855 853 851 850 847 845 843 841 839 837 835 834 832 830 829 828 826 825 823 821 819 817 815 813 811 808 805 804 802 799 797 796 796 796 795 795 793 792 790 789 788 787 786 785 785 783 782 781 780 778 777 775 774 772 771
879 877 876 874 873 871 870 868 866 865 863 861 859 857 855 854 852 850 848 846 844 842 840 838 836 834 832 831 829 828 827 825 823 821 820 818 816 814 812 810 807 805 803 800 799 798 797 797 797 796 794 793 792 791 790 789 788 787 786 785 784 783 781 780 779 777 775 774 772
879 877 876 875 873 872 870 868 866 865 863 861 860 858 856 854 852 850 849 847 844 842 840 839 837 835 834 832 830 829 827 826 824 822 820 819 817 815 814 811 809 807 804 801 800 800 799 798 798 797 795 794 793 792 791 790 790 789 788 787 786 785 784 782 780 779 777 775 774
879 878 876 875 873 872 870 869 867 865 864 862 860 858 857 855 853 851 849 847 845 843 841 840 838 836 835 833 832 830 828 826 825 823 821 820 818 817 815 813 811 809 806 804 803 801 800 800 799 798 797 795 794 793 792 791 791 790 789 788 787 786 785 784 782 780 779 777 775
879 878 876 875 874 872 870 869 867 866 864 862 860 859 857 855 854 852 850 848 846 844 842 841 839 838 836 835 833 831 829 827 826 824 823 821 820 818 817 815 813 811 809 807 805 803 802 801 800 800 799 797 796 795 794 793 792 791 790 789 788 787 786 785 783 782 780 778 777
880 878 877 875 874 872 871 869 868 866 865 863 861 859 858 856 854 852 850 848 846 845 843 842 840 839 837 835 834 832 830 828 827 825 824 822 821 819 818 816 815 813 811 809 807 805 804 802 802 801 800 798 797 796 795 794 792 791 790 790 789 787 786 785 784 783 781 780 778
880 878 877 875 874 872 871 870 868 866 865 863 862 860 858 857 855 853 850 849 847 845 844 842 841 840 838 836 834 833 831 829 828 826 825 823 822 820 819 817 816 815 813 811 809 807 805 804 803 802 800 799 798 797 796 795 793 792 791 790 790 789 787 786 785 784 783 781 779
Wind_Speed
24 24 23 21 19 20 20 20 20 20 21 22 23 23 22 20 19 18 18 18 18 19 20 21 21 22 23 25 26 25 24 24 24 24 24 24 25 25 25 25 25 25 25 26 26 26 25 24 23 22 22 21 21 21 20 20 21 22 23 23 22 21 21 22 22 23 23 24 24
25 25 24 22 22 22 22 21 21 22 23 24 23 22 21 20 18 18 18 19 19 20 21 22 23 24 25 26 26 25 24 24 24 24 24 24 25 25 26 25 25 25 25 25 26 25 24 24 24 23 22 22 21 21 21 21 21 22 23 22 22 21 21 21 22 22 23 24 24
26 25 25 24 24 25 24 22 23 25 26 24 23 21 20 19 18 18 19 19 21 22 22 23 24 26 26 27 26 25 24 24 23 23 24 24 25 26 26 26 26 25 26 26 25 24 24 24 24 24 22 21 21 22 21 22 21 21 22 22 21 21 21 21 22 22 23 23 24
26 26 25 25 25 25 25 24 25 26 26 24 22 21 20 19 19 19 20 21 22 23 24 25 26 26 26 26 26 26 25 23 23 23 24 25 26 26 26 26 26 27 27 27 26 25 25 25 24 23 22 22 22 22 21 21 21 21 21 21 21 21 21 22 22 22 22 22 23
27 26 25 25 25 25 25 24 26 26 25 23 21 20 20 20 20 21 22 23 23 24 25 26 26 26 26 27 27 27 25 23 23 23 24 25 26 26 26 27 27 27 27 26 25 25 25 25 24 23 22 22 21 21 20 21 21 22 22 22 22 22 22 22 23 23 22 23 23
27 26 26 25 25 25 25 25 25 25 24 21 21 21 22 21 21 22 23 24 25 25 26 26 25 25 27 28 28 26 24 23 23 24 25 26 26 26 27 27 28 28 27 26 25 25 25 25 24 23 22 21 21 21 21 21 22 22 23 24 24 23 23 23 23 23 23 24 25
27 26 26 25 25 25 25 25 26 24 22 21 21 22 23 23 23 24 25 25 25 25 25 24 25 26 28 30 28 25 23 24 25 25 26 26 26 26 27 27 28 28 27 26 25 24 24 24 24 23 22 22 21 21 21 21 23 24 26 26 25 24 24 25 24 24 24 25 26
27 26 25 25 25 25 25 25 25 23 22 21 21 22 23 24 24 26 26 26 24 24 24 25 26 28 29 29 27 25 25 26 26 26 26 26 26 26 27 27 28 28 27 26 25 25 25 24 24 22 22 22 21 21 23 24 25 27 28 28 27 26 25 25 25 25 26 26 27
27 26 25 25 24 24 25 25 24 22 22 21 22 23 24 24 25 26 26 25 24 24 25 26 27 28 28 27 26 26 26 27 27 27 27 27 26 27 27 27 27 27 27 27 26 26 26 25 24 23 22 22 23 24 25 27 27 28 28 28 27 26 26 27 27 27 27 27 27
27 26 25 24 24 24 25 24 23 22 22 22 23 23 24 24 25 26 26 25 25 25 26 26 27 27 27 26 26 26 26 27 27 27 27 27 27 27 27 27 27 27 27 27 26 26 26 25 24 24 24 24 25 26 28 28 28 28 27 26 26 27 29 29 29 27 27 26 26
27 26 24 24 24 24 24 24 23 22 22 22 23 24 25 25 26 26 25 25 25 25 26 26 27 26 26 26 26 26 26 26 27 27 28 28 28 27 27 27 27 27 27 27 27 27 26 25 25 26 26 26 26 27 27 28 27 27 27 27 28 28 29 30 29 27 25 24 24
26 25 24 24 24 24 24 24 23 22 22 23 24 24 25 25 25 25 25 25 25 26 26 26 26 26 25 25 26 26 27 27 28 28 28 28 28 28 28 27 27 27 28 28 28 27 26 26 27 28 28 28 27 26 26 26 27 27 28 28 28 28 29 29 27 26 25 24 25
25 24 24 25 25 24 24 24 23 22 22 23 24 24 24 25 25 25 25 25 25 25 25 25 25 25 25 25 26 27 27 27 28 28 28 28 28 28 28 28 28 29 29 30 29 28 27 28 29 29 29 28 27 26 26 26 26 27 27 28 28 28 28 27 26 24 24 24 25
25 24 24 25 25 24 24 24 23 22 23 24 24 25 25 25 25 24 24 25 25 25 25 25 25 25 25 25 26 27 27 28 28 28 28 28 28 28 28 29 30 31 31 31 31 30 29 30 30 30 29 29 28 27 26 26 26 26 27 27 27 27 27 26 24 24 24 24 22
24 24 24 25 24 24 24 23 23 22 23 24 24 25 25 25 25 24 24 25 25 25 25 26 26 26 26 26 26 27 28 29 28 28 28 28 29 29 30 31 32 33 33 33 32 31 31 30 30 30 29 29 29 28 28 27 26 26 26 26 26 26 25 24 23 22 22 21 18
25 24 24 24 24 24 24 23 23 23 23 24 25 25 25 25 25 24 24 25 26 26 26 27 27 27 27 27 27 28 29 29 29 28 28 29 30 31 32 33 33 34 34 34 33 33 32 31 30 30 29 29 29 29 29 29 27 27 26 25 24 23 23 22 21 19 17 15 14
24 24 24 24 24 24 24 23 23 23 24 24 25 25 25 25 25 25 25 25 26 27 27 28 28 28 28 28 28 29 29 29 29 29 29 30 31 32 33 34 34 34 34 34 34 34 33 33 32 31 30 30 30 30 30 29 27 25 24 22 20 20 19 18 16 14 12 12 14
24 24 24 24 24 24 24 24 24 24 24 25 25 26 26 26 26 26 26 26 27 27 28 29 29 29 29 30 30 30 29 29 29 29 30 31 32 33 34 34 35 35 35 35 35 34 34 34 34 33 33 32 32 30 28 26 24 22 20 18 16 15 14 12 10 10 11 13 14
24 24 24 24 24 25 25 24 24 24 25 25 25 26 27 27 27 27 27 28 28 28 29 30 30 30 30 30 31 31 30 30 30 30 32 33 33 34 35 35 35 35 35 35 35 34 35 35 36 36 35 34 32 28 25 21 19 17 15 14 12 10 9 9 10 11 11 12 13
24 24 24 24 25 25 25 25 25 25 25 26 26 27 27 28 28 29 29 29 29 29 29 30 31 31 31 31 31 31 31 30 30 31 32 34 34 35 35 35 35 35 35 35 34 35 36 36 36 36 34 31 27 23 19 15 13 12 10 9 8 9 11 12 12 11 10 11 11
24 24 24 24 25 25 25 25 25 25 26 26 27 28 28 29 29 30 30 30 30 30 31 31 31 32 32 32 31 31 31 30 31 32 33 34 35 35 35 35 34 35 35 35 36 37 37 36 33 30 27 22 18 14 11 9 8 8 8 10 13 15 15 15 13 12 10 10 9
25 25 24 24 25 25 25 25 25 26 26 26 27 28 29 29 30 30 30 30 31 31 31 32 32 32 32 31 31 31 31 31 32 34 34 35 35 35 35 34 34 34 35 36 38 38 35 28 22 18 15 12 10 9 9 9 10 12 15 17 18 18 19 19 18 17 15 12 11
25 25 25 24 25 26 26 26 26 27 27 27 28 29 29 30 31 31 31 31 32 32 32 32 32 32 31 31 30 31 32 33 34 35 35 35 35 35 35 34 34 34 35 36 38 32 21 15 15 15 15 16 17 17 16 15 16 18 21 20 19 19 20 22 22 22 21 19 16
25 25 25 25 26 27 27 27 27 27 28 28 29 29 30 30 31 31 31 32 33 33 33 33 33 32 30 30 30 31 32 34 34 35 36 36 35 36 36 35 34 34 36 37 31 20 21 26 27 26 25 25 23 22 20 20 22 23 23 21 20 20 21 22 23 23 24 24 23
25 25 25 25 26 27 28 28 28 28 29 29 29 30 30 30 30 31 32 32 33 34 34 33 32 31 29 29 30 32 33 33 34 34 35 36 36 36 36 35 34 35 36 36 24 25 31 31 30 29 29 27 25 23 24 26 27 27 25 23 22 21 22 23 23 23 23 24 24
25 25 25 26 27 28 29 29 29 29 29 29 29 29 29 30 30 30 31 33 34 34 34 33 32 29 28 29 30 32 33 33 33 34 34 35 35 36 36 35 35 36 36 32 25 30 33 31 29 29 29 28 26 26 26 28 29 29 27 25 24 23 24 24 25 25 25 24 24
25 25 25 26 27 28 29 29 29 29 29 29 28 28 28 29 29 30 32 33 34 35 34 33 31 29 28 29 30 32 33 33 33 33 33 33 34 35 35 35 36 37 35 28 29 33 33 31 29 28 28 28 28 27 27 28 29 29 28 27 26 26 26 26 26 26 26 26 26
25 25 26 26 27 28 29 29 29 29 28 28 27 27 28 28 29 30 32 33 34 34 33 32 31 30 29 30 30 31 33 33 33 32 32 33 33 34 35 35 37 37 32 26 30 33 32 30 29 28 27 27 28 27 26 26 26 27 26 26 26 26 26 27 26 26 25 25 26
26 26 26 27 27 28 28 29 28 28 27 27 27 27 27 28 29 30 32 33 33 33 32 32 31 31 30 30 30 31 32 32 32 32 32 33 33 34 35 36 37 35 32 31 32 32 32 31 29 28 26 25 25 25 25 24 24 24 23 24 24 25 25 27 27 26 25 24 23
26 26 26 26 27 27 27 28 27 27 27 26 27 27 27 28 29 31 32 32 32 32 32 32 32 32 31 31 31 31 31 31 31 31 31 32 32 34 35 36 36 34 31 32 32 32 32 31 30 28 27 25 24 24 24 23 22 22 22 23 24 26 26 26 28 28 26 25 22
26 26 26 26 26 26 27 27 27 27 26 26 27 27 28 28 30 31 31 31 31 32 33 33 33 33 32 31 31 31 30 30 30 31 31 31 32 33 34 36 36 34 31 33 31 31 32 31 30 29 27 25 24 24 23 22 22 22 22 23 25 27 28 28 30 30 30 28 26
26 26 26 26 25 25 26 26 26 26 26 27 27 28 28 29 30 31 31 31 31 32 33 34 33 33 31 31 31 30 29 29 29 30 30 30 31 32 34 35 36 34 32 34 31 31 31 31 30 29 28 26 25 24 23 22 21 22 23 25 26 28 29 29 30 31 31 31 29
26 26 26 25 25 25 25 26 26 26 26 27 28 28 29 29 30 31 31 31 31 32 32 32 32 32 31 30 29 29 28 28 28 29 30 30 31 32 33 34 35 34 33 35 32 31 31 31 30 29 28 26 26 25 23 23 22 22 23 25 26 28 29 29 30 31 31 31 31
26 26 25 25 25 25 25 26 26 26 27 28 28 29 29 29 30 31 31 30 30 30 31 31 31 30 30 29 29 28 27 27 28 29 29 29 30 31 32 33 35 34 33 36 33 32 31 31 31 29 27 27 27 26 24 23 23 23 23 24 26 28 29 29 30 30 31 31 31
26 26 25 24 24 25 25 26 26 27 27 28 29 29 29 29 30 30 30 29 29 30 30 30 30 30 30 30 28 27 27 27 28 28 28 28 29 30 32 33 34 34 33 36 33 32 31 31 30 29 27 27 27 26 25 23 22 22 23 24 25 27 28 29 30 30 30 30 31
26 25 24 23 24 25 26 26 26 27 27 28 29 29 29 29 29 29 29 28 28 29 29 29 29 29 30 29 28 27 27 27 27 28 27 27 28 29 31 32 34 33 33 36 33 31 30 31 30 29 28 28 27 26 25 23 22 21 22 22 24 25 27 28 29 29 30 30 30
25 25 24 23 23 25 25 26 26 27 27 28 28 28 28 29 29 29 28 27 27 28 28 27 28 28 28 28 27 27 27 26 27 27 27 27 27 28 29 31 33 33 32 34 33 31 30 30 30 30 30 30 28 26 25 23 22 21 20 20 22 23 25 26 27 28 29 30 29
25 24 23 23 24 24 25 25 26 26 27 28 28 28 28 28 28 28 27 26 26 26 26 26 26 27 27 25 25 26 26 26 26 26 27 27 26 26 28 30 31 32 32 33 32 31 30 29 29 29 30 31 29 27 25 24 23 22 20 20 20 21 23 24 25 26 28 29 28
24 24 23 23 24 24 24 25 25 26 27 27 28 28 28 27 27 27 26 25 25 24 24 24 25 26 25 24 24 25 25 25 24 25 26 26 26 25 26 28 30 31 31 31 31 31 30 28 28 28 29 31 30 28 26 25 24 23 22 21 20 21 22 22 23 24 26 28 27
24 24 23 23 24 24 24 24 25 26 27 27 27 27 27 27 27 26 25 24 24 23 23 23 24 25 25 23 24 25 25 24 23 24 25 26 26 25 25 27 28 29 30 30 30 30 30 28 27 27 28 30 30 29 27 26 25 25 24 22 21 21 21 21 21 22 24 27 27
24 23 23 23 24 23 23 24 25 26 26 27 27 26 26 26 26 26 25 24 23 23 22 23 24 24 24 24 24 24 25 24 22 23 24 25 26 26 26 26 27 28 29 29 29 29 29 29 28 27 27 28 29 29 28 27 26 26 25 23 22 21 21 21 21 21 22 24 26
Wind_Direction
347 346 344 341 338 336 334 333 332 331 330 330 329 328 327 325 323 321 320 319 318 318 317 317 317 316 315 315 314 313 313 315 318 321 322 322 321 320 319 318 318 319 320 321 321 320 318 318 318 317 315 313 311 310 308 306 304 302 300 301 303 306 307 307 305 303 302 301 300
348 347 346 343 341 339 337 334 333 332 331 330 329 328 327 326 323 321 320 319 318 317 316 315 315 314 313 312 311 310 310 312 315 319 321 322 321 319 318 316 316 317 318 320 320 319 317 317 317 315 312 310 310 308 307 306 304 301 301 303 306 308 307 305 303 303 303 302 301
349 349 347 346 345 343 340 336 333 333 332 331 329 328 327 326 323 321 320 319 318 317 316 315 314 313 312 311 310 308 307 309 313 317 320 321 321 319 317 315 315 316 317 318 318 318 317 315 314 312 310 309 308 308 306 305 304 303 304 306 307 307 305 304 303 303 303 302 301
351 350 348 346 345 344 341 337 334 334 333 331 330 329 328 327 325 322 321 319 319 318 316 315 314 313 313 312 310 307 306 308 314 318 321 321 320 319 317 316 315 314 315 316 316 316 316 315 313 311 309 307 306 305 304 303 304 305 305 306 306 305 303 302 302 302 301 300 300
351 350 349 347 345 344 341 338 336 335 333 331 330 330 330 329 327 325 324 322 321 319 318 316 314 314 315 313 310 308 307 311 318 322 322 321 320 319 318 316 314 313 312 312 314 315 315 315 313 311 308 307 306 304 302 302 303 304 305 305 304 303 302 301 300 300 299 299 298
349 349 348 347 346 344 342 340 338 337 335 333 332 332 332 330 328 327 325 323 322 321 320 320 318 318 317 315 313 312 314 320 324 325 323 321 319 318 318 316 315 313 311 310 312 314 315 315 313 311 309 307 305 304 302 303 303 304 303 303 303 302 301 300 299 298 298 297 297
348 348 347 347 346 344 342 341 340 339 337 335 334 334 333 331 330 329 327 325 324 324 324 323 322 321 319 318 317 320 325 329 328 325 322 320 319 318 317 317 316 313 311 311 312 314 315 315 313 311 309 308 305 303 303 303 303 303 302 301 301 300 299 298 298 297 297 297 297
347 347 346 346 345 344 343 342 342 340 339 337 336 335 334 333 331 330 329 328 326 325 325 325 323 322 322 322 324 328 331 329 326 324 321 319 317 317 316 316 315 315 315 315 315 316 316 315 313 310 308 307 305 303 303 303 302 301 300 299 300 299 298 298 298 297 297 297 297
347 346 346 345 344 343 343 343 342 341 339 338 337 336 335 333 332 330 329 328 327 326 326 325 324 325 326 328 330 331 329 327 324 322 320 319 318 317 317 317 317 318 318 319 319 318 316 314 311 308 306 305 304 303 302 302 301 300 299 298 298 298 299 299 298 298 298 298 297
346 345 344 343 342 342 342 342 342 340 339 337 337 336 335 334 332 330 328 327 326 326 326 326 327 328 330 331 331 329 327 325 323 321 320 319 318 317 317 317 318 318 319 319 319 317 315 312 309 307 305 303 302 301 301 301 300 298 298 297 298 298 300 301 301 301 300 299 298
345 344 343 342 341 341 341 341 341 340 338 337 336 336 335 334 333 331 329 328 327 327 328 329 330 331 331 331 330 328 327 325 323 322 320 318 317 317 317 317 317 317 317 317 317 316 314 311 308 305 304 303 302 301 300 300 299 298 297 297 298 298 300 302 303 303 302 301 301
345 343 342 341 341 341 341 341 340 339 338 337 336 335 334 333 332 332 331 331 331 331 331 332 333 332 331 330 329 328 327 326 326 325 323 321 319 318 318 317 317 316 315 315 314 313 312 309 307 305 304 303 302 300 299 298 298 298 297 298 298 298 299 301 303 304 304 304 304
344 343 342 342 342 342 341 341 339 339 339 339 337 336 335 334 334 334 334 334 334 333 333 334 334 333 331 330 329 329 328 328 327 327 325 323 321 319 318 317 316 316 315 314 313 312 310 308 306 305 304 303 301 299 297 297 297 297 297 297 298 298 298 300 303 306 307 306 304
345 344 344 344 344 343 342 341 340 340 340 340 340 339 338 337 337 337 337 336 335 334 334 334 334 334 332 331 331 330 329 328 328 327 325 325 323 320 318 317 317 316 315 314 314 312 310 308 307 305 303 302 300 299 298 297 296 295 295 295 295 296 298 301 304 306 307 306 306
347 347 346 346 346 345 344 343 343 342 342 342 341 340 340 339 340 339 339 337 337 336 334 334 334 334 334 333 332 331 330 330 329 328 327 326 323 321 320 319 318 317 316 315 314 313 311 308 306 305 303 302 301 301 300 299 297 296 295 294 294 295 298 300 303 305 306 308 313
349 349 349 349 348 347 346 345 345 344 344 343 342 342 341 340 340 340 339 338 337 336 335 334 333 333 334 334 334 332 331 330 329 328 327 325 323 322 321 320 319 318 317 316 314 313 311 309 307 305 304 303 302 302 302 302 300 298 297 297 297 297 299 301 304 307 312 323 336
351 351 351 351 350 349 347 346 346 346 345 344 344 344 343 341 341 341 340 338 336 335 334 334 334 334 334 335 335 334 332 330 329 329 327 325 324 323 322 321 320 319 318 316 315 314 312 311 310 308 306 304 303 303 304 304 304 303 303 303 303 303 304 306 311 320 337 356 5
353 352 352 351 351 350 348 347 347 347 346 345 344 344 343 342 342 341 340 339 338 335 334 335 336 336 335 335 336 335 332 329 330 329 328 326 325 324 323 322 321 320 319 318 317 315 314 313 312 310 307 305 305 305 306 307 308 308 309 309 308 310 315 323 340 360 13 19 21
353 352 352 351 351 350 349 348 348 347 346 346 344 344 343 343 343 341 340 340 339 337 335 336 337 337 337 336 335 334 332 329 328 327 327 327 326 325 324 323 323 322 321 320 318 316 314 312 310 307 306 305 305 307 309 311 312 312 312 313 317 327 346 9 24 29 31 31 30
352 351 350 350 350 349 349 349 348 347 347 346 346 345 344 344 343 341 340 339 338 337 337 337 337 337 337 336 334 333 332 330 328 327 327 328 327 327 326 325 325 324 323 321 318 314 310 307 305 304 304 305 307 310 315 320 321 323 327 338 358 22 37 40 39 38 37 37 33
351 350 349 349 349 348 347 346 347 346 345 344 344 344 344 343 342 340 339 338 338 338 338 338 337 336 335 334 333 331 331 330 329 329 329 329 329 328 328 328 327 326 324 321 316 311 307 304 304 306 307 308 313 321 335 346 351 5 26 44 52 54 51 47 42 39 36 32 28
351 349 348 348 347 346 345 345 346 345 343 342 343 343 343 342 341 340 339 339 339 339 339 338 337 336 335 333 332 331 331 331 332 332 332 331 330 331 331 330 328 326 323 320 316 313 311 312 316 322 327 336 354 18 34 38 43 51 58 62 60 55 50 46 43 39 34 28 21
350 349 348 347 347 346 345 344 345 344 343 341 341 341 341 341 341 340 340 340 340 340 339 339 338 337 336 335 334 333 333 334 334 334 335 334 333 334 334 333 330 327 324 321 321 323 335 6 23 29 34 40 45 50 53 53 53 56 59 59 53 48 44 42 40 36 32 28 22
350 349 348 346 347 345 344 343 343 342 341 341 341 341 341 341 341 341 341 341 341 340 340 339 339 338 338 337 336 335 335 335 335 336 336 337 337 337 336 335 332 329 327 327 335 5 52 56 52 49 48 49 48 47 47 49 52 55 55 50 43 37 35 36 35 32 29 26 22
350 349 348 348 345 344 344 343 342 342 342 342 342 342 342 342 342 341 342 342 341 341 341 340 340 341 340 339 338 338 338 337 337 336 337 338 339 339 338 336 334 332 331 334 3 48 62 54 49 45 44 44 42 41 43 47 51 53 51 44 37 31 29 29 29 27 25 22 20
350 349 348 347 345 343 344 344 344 344 344 344 344 344 344 344 343 343 343 342 342 341 341 341 342 343 342 341 340 340 341 340 340 339 339 340 340 340 338 337 336 334 336 347 25 49 51 48 45 42 40 39 38 39 41 44 48 49 47 41 36 31 27 24 23 22 21 19 17
350 349 347 346 346 345 345 345 346 346 347 347 347 346 346 346 346 345 345 344 343 343 342 343 344 344 344 343 342 342 342 343 342 342 342 342 341 340 340 339 338 336 341 2 38 48 45 44 42 40 38 37 37 37 38 40 43 44 42 39 35 32 29 25 21 19 18 18 16
349 348 347 346 347 347 348 348 349 350 350 350 350 350 349 348 348 348 346 345 345 344 343 344 346 346 346 346 345 345 345 345 345 345 345 345 345 345 344 343 342 344 354 22 44 47 44 42 41 39 38 37 37 36 36 37 38 38 36 34 32 31 28 25 22 19 17 17 17
349 349 348 347 348 349 350 352 352 352 352 352 352 352 351 350 349 349 348 347 346 345 344 344 346 348 348 348 348 348 348 349 349 348 348 349 349 349 350 350 348 352 9 39 49 47 43 42 41 39 38 38 38 37 35 34 34 33 31 30 28 27 25 24 22 18 15 14 15
351 350 349 349 349 351 353 354 355 355 354 353 353 352 351 351 351 350 350 349 347 346 345 346 347 349 351 351 352 352 351 351 352 352 352 353 354 355 355 354 353 358 15 39 49 48 44 43 41 39 38 38 39 38 36 33 31 30 28 27 25 24 23 22 20 17 14 11 10
353 351 350 350 352 354 355 356 356 356 356 354 353 353 353 352 352 351 351 350 348 347 347 348 349 351 353 355 355 355 354 354 354 355 356 356 358 358 359 359 357 1 17 37 48 48 43 42 40 39 38 37 38 38 36 32 29 27 26 24 23 22 21 20 19 17 14 11 7
354 352 351 353 355 356 357 357 357 357 357 355 355 354 354 353 352 353 353 351 349 348 348 349 351 352 354 356 357 357 356 356 357 358 359 0 1 1 1 2 359 2 15 34 47 48 43 40 39 38 37 37 38 38 36 32 29 26 24 23 22 21 21 20 17 16 14 13 9
356 355 355 356 358 359 358 358 358 358 357 356 355 355 354 354 354 354 354 352 350 349 349 350 352 352 354 356 357 358 358 358 359 1 4 5 5 4 3 4 1 2 13 30 44 46 41 39 38 37 37 37 38 38 36 33 29 26 23 21 21 20 20 19 17 16 15 14 10
358 357 357 359 1 1 360 359 358 358 357 356 356 355 355 354 354 354 353 352 350 350 350 351 352 353 354 356 358 359 360 1 3 5 7 8 8 6 6 6 3 3 12 27 40 44 40 38 37 36 37 37 38 38 37 34 31 27 23 21 19 19 18 18 17 16 15 14 10
358 358 358 360 1 1 360 358 358 357 357 356 355 355 355 354 354 353 352 351 350 351 352 353 354 355 357 358 0 2 3 5 7 8 9 11 10 9 8 8 7 6 12 25 36 41 39 37 36 35 36 37 38 39 38 36 32 28 24 20 18 17 16 15 15 15 15 14 9
359 358 358 359 1 1 359 358 357 357 356 355 354 354 354 354 354 353 352 351 351 352 353 354 355 357 358 360 3 5 7 9 10 10 12 13 13 11 10 11 10 9 12 22 33 38 38 37 35 35 34 35 36 37 38 37 34 30 26 21 18 15 14 13 12 13 13 12 8
359 359 359 360 0 360 359 358 357 356 356 355 354 353 353 353 353 353 353 352 352 352 352 354 355 358 360 1 4 8 12 14 14 14 14 15 15 13 12 13 12 10 12 20 30 36 37 37 35 34 33 33 34 35 35 36 34 32 27 22 19 16 14 12 10 10 11 10 6
359 359 359 0 1 360 358 358 357 357 356 355 354 354 354 354 353 353 353 354 352 352 352 354 356 359 1 3 7 12 16 18 18 18 17 17 17 15 14 14 14 12 13 18 26 32 36 37 36 34 32 32 32 33 33 33 33 31 28 24 20 17 15 12 10 8 8 8 5
360 359 360 1 1 360 359 358 358 357 356 355 354 354 354 354 353 353 354 355 355 354 354 356 358 1 4 7 10 14 17 20 22 22 21 19 18 17 16 16 16 14 14 17 22 28 34 37 37 35 32 31 31 31 31 31 30 30 28 24 20 17 15 14 11 8 7 7 6
0 0 1 1 1 360 359 358 358 357 357 356 355 355 355 354 354 355 356 357 358 359 359 359 1 4 8 11 12 14 17 21 24 25 23 22 21 20 20 20 18 16 16 17 20 25 30 34 36 35 33 30 30 30 29 29 28 27 26 23 20 17 14 13 11 9 6 5 6
2 2 1 1 1 0 359 359 358 357 357 357 356 355 355 356 357 359 360 0 2 3 4 4 5 8 12 14 15 15 17 20 24 25 25 24 23 23 23 22 20 18 17 17 18 22 26 30 33 34 33 30 29 29 29 27 27 26 24 22 19 17 14 12 10 9 6 5 4